This is the latest recevied weather packets stored in our database for station/object KB3FKJ. If no packets are shown the sender has not sent any weather packets the latest 10 day(s).
| Time | Temp. | Humidity | Pressure | Rain* | Wind** | Luminosity | Snow |
|---|---|---|---|---|---|---|---|
| 1778115553 | 10.56° C | 79% | 1011.4 hPa | 0 mm | - | 0 W/m² | - |
| 1778115250 | 10.56° C | 78% | 1011.2 hPa | 0 mm | - | 0 W/m² | - |
| 1778114946 | 10.56° C | 78% | 1011.3 hPa | 0 mm | - | 0 W/m² | - |
| 1778114643 | 10.56° C | 78% | 1011.5 hPa | 0 mm | - | 0 W/m² | - |
| 1778114341 | 10.56° C | 79% | 1011.3 hPa | 0 mm | - | 0 W/m² | - |
| 1778114036 | 11.11° C | 78% | 1011.4 hPa | 0 mm | - | 0 W/m² | - |
| 1778113731 | 10.56° C | 79% | 1011.1 hPa | 0 mm | - | 0 W/m² | - |
| 1778113428 | 10.56° C | 80% | 1011 hPa | 0 mm | - | 0 W/m² | - |
| 1778113125 | 10.56° C | 81% | 1010.9 hPa | 0 mm | - | 0 W/m² | - |
| 1778112821 | 10.56° C | 83% | 1010.7 hPa | 0 mm | - | 1 W/m² | - |
| 1778112518 | 10.56° C | 83% | 1010.9 hPa | 0 mm | - | 2 W/m² | - |
| 1778112213 | 11.11° C | 82% | 1010.7 hPa | 0 mm | - | 2 W/m² | - |
| 1778111910 | 11.11° C | 82% | 1010.7 hPa | 0 mm | - | 4 W/m² | - |
| 1778111606 | 11.11° C | 81% | 1010.4 hPa | 0 mm | - | 8 W/m² | - |
| 1778111303 | 11.11° C | 81% | 1010.3 hPa | 0 mm | - | 10 W/m² | - |
| 1778111000 | 11.11° C | 82% | 1010.1 hPa | 0 mm | - | 12 W/m² | - |
| 1778110698 | 11.11° C | 82% | 1010.3 hPa | 0 mm | - | 12 W/m² | - |
| 1778110393 | 11.11° C | 83% | 1010.1 hPa | 0 mm | - | 8 W/m² | - |
| 1778110091 | 11.11° C | 81% | 1010.1 hPa | 0 mm | - | 7 W/m² | - |
| 1778109786 | 11.11° C | 82% | 1009.7 hPa | 0 mm | - | 10 W/m² | - |
| 1778109483 | 11.11° C | 82% | 1009.8 hPa | 0 mm | - | 9 W/m² | - |
| 1778109181 | 11.11° C | 81% | 1009.8 hPa | 0 mm | - | 10 W/m² | - |
| 1778108878 | 11.11° C | 81% | 1009.8 hPa | 0 mm | - | 9 W/m² | - |
| 1778108575 | 11.11° C | 82% | 1009.9 hPa | 0 mm | - | 8 W/m² | - |
| 1778108272 | 11.67° C | 83% | 1010.1 hPa | 0 mm | - | 8 W/m² | - |
* Rain latest hour (hover to see other rain measurements)
** Current wind speed in m/s (hover to see current wind gust speed)